Regional Weather Roundup
Issued by NWS

Home | Current Version | Previous Version | Text Only | Print | Product List | Glossary Off
Versions: 1 2 3 4 5 6 7 8 9 10 11 12 13 14 15 16 17 18 19 20 21 22 23 24 25 26 27 28 29 30 31 32 33 34 35 36 37 38 39 40 41 42 43 44 45 46 47 48 49 50

000
ASUS43 KIND 272200
RWRIN

WEATHER ROUNDUP FOR INDIANA
NATIONAL WEATHER SERVICE INDIANAPOLIS IN
600 PM EDT TUE JUN 27 2017

NOTE: "FAIR" INDICATES FEW OR NO CLOUDS BELOW 12,000 FEET WITH NO
SIGNIFICANT WEATHER AND/OR OBSTRUCTIONS TO VISIBILITY.

* - STATION DOES NOT REPORT WEATHER SUCH AS PRECIPITATION OR FOG.

+ - STATION NOT QUALITY CONTROLLED BY THE NATIONAL WEATHER SERVICE.
    USE DATA WITH CAUTION...ESPECIALLY DEWPOINT AND RELATIVE
    HUMIDITY OBSERVATIONS.

INZ001>003-010>013-019-020-272300-
NORTHWEST INDIANA

CITY           SKY/WX    TMP DP  RH WIND       PRES   REMARKS
GARY /AIRPORT/ MOSUNNY   73  43  33 NE8       30.07F
KNOX *+        SUNNY     72  36  26 NW6       30.08S
MICHIGAN CITY+ SUNNY     72  43  35 CALM      30.09F
MONTICELLO +   MOSUNNY   72  43  34 W6        30.09F
RENSSELAER +   MOSUNNY   73  34  23 S3        30.09F

$$

LMZ046-743>745-272300-
SOUTHERN LAKE MICHIGAN

STATION/POSITION TIME  TEMP    WIND        PRES    WAVE
                       AIR SEA DIR/SP/G            HT
                 (UTC) (F)     (DEG/KT/KT) (MB)    (FT)
BURNS HARBOR     2140   70      60/  9/ 13 1019.0F
MICHIGAN CITY    2130   67      30/  5/  5   N/A
5NW MICH CITY    2150   67 67  100/  4/  6   N/A     1

$$

INZ004-005-014>016-021>024-272300-
NORTH CENTRAL INDIANA

CITY           SKY/WX    TMP DP  RH WIND       PRES   REMARKS
ELKHART        SUNNY     72  41  33 NW6       30.08F
GOSHEN         MOSUNNY   73  41  31 NW13      30.08S
PERU/GRISSOM   PTSUNNY   72  50  45 W8        30.08F
SOUTH BEND     SUNNY     71  43  36 NW8       30.09F

$$

INZ006>009-017-018-025>027-272300-
NORTHEAST INDIANA

CITY           SKY/WX    TMP DP  RH WIND       PRES   REMARKS
FORT WAYNE     MOSUNNY   72  47  40 W12       30.08F
KENDALLVILLE + MOSUNNY   73  43  34 W10       30.08S

$$

INZ028-029-035-036-043>045-051>053-272300-
WEST CENTRAL INDIANA

CITY           SKY/WX    TMP DP  RH WIND       PRES   REMARKS
CRAWFORDSVL +  SUNNY     70  45  41 CALM      30.11F
GREENCASTLE +  MOSUNNY   70  45  40 NE3       30.11F
LAFAYETTE      SUNNY     72  47  40 S3        30.09F
TERRE HAUTE    SUNNY     74  47  38 E5        30.10F

$$

INZ030>032-037>040-046>048-054>057-064-065-272300-
CENTRAL INDIANA

CITY           SKY/WX    TMP DP  RH WIND       PRES   REMARKS
COLUMBUS       MOSUNNY   73  39  29 CALM      30.11F
GREENWOOD *+   MOSUNNY   73  43  34 NW6       30.12S
INDIANAPOLIS   MOSUNNY   73  47  39 VRB3      30.10F
-EAGLE CREEK   SUNNY     73  43  33 W3        30.10F
KOKOMO +       MOSUNNY   71  47  42 VRB5      30.11F
MT COMFORT *+  MOSUNNY   72  46  40 CALM      30.12S
SHELBYVILLE    MOSUNNY   74  43  32 CALM      30.10F

$$

INZ033-034-041-042-049-050-058-059-272300-
EAST CENTRAL INDIANA

CITY           SKY/WX    TMP DP  RH WIND       PRES   REMARKS
MUNCIE         MOSUNNY   73  45  36 NW5       30.11S
RICHMOND +     MOSUNNY   70  45  40 W6        30.12F

$$

INZ060-061-067>069-081>083-085>088-272300-
SOUTHWEST INDIANA

CITY           SKY/WX    TMP DP  RH WIND       PRES   REMARKS
EVANSVILLE     MOSUNNY   79  49  34 CALM      30.08F
HUNTINGBURG *+ SUNNY     76  52  43 NW7       30.09F

$$

INZ062-063-066-070>080-084-089>092-272300-
SOUTH CENTRAL AND SOUTHEAST INDIANA

CITY           SKY/WX    TMP DP  RH WIND       PRES   REMARKS
BLOOMINGTON    SUNNY     76  45  33 W6        30.10F
MADISON *+     MOSUNNY   73  41  31 CALM      30.13F
SEYMOUR +      SUNNY     77  50  38 S5        30.10F

$$





USA.gov is the U.S. government's official web portal to all federal, state and local government web resources and services.